Regional Weather Roundup
Issued by NWS Albany, NY

Current Version | Previous Version | Text Only | Print | Product List | Glossary Off
Versions: 1 2 3 4 5 6 7 8 9 10 11 12 13 14 15 16 17 18 19 20 21 22 23 24 25 26 27

000
ASUS41 KALY 240310
RWRALY

NEW YORK STATE HOURLY WEATHER ROUNDUP
NATIONAL WEATHER SERVICE ALBANY NY
1100 PM EDT MON MAY 23 2022

NOTE: "FAIR" INDICATES FEW OR NO CLOUDS BELOW 12,000 FEET WITH NO
SIGNIFICANT WEATHER AND/OR NO OBSTRUCTIONS TO VISIBILITY.

NYZ032-033-038>043-046>054-057>066-NYZ062>081-082-084-240400-
EAST


CITY           SKY/WX    TMP DP  RH WIND       PRES   REMARKS
ALBANY         MOCLDY    57  39  51 N9        30.27R
GLENS FALLS    PTCLDY    53  38  56 N7        30.28S
POUGHKEEPSIE   PTCLDY    61  45  55 CALM      30.22S
NEWBURGH       CLOUDY    61  41  48 NE6       30.23S
MONTGOMERY     MOCLDY    58  48  69 N5        30.23R
WHITE PLAINS   PTCLDY    63  41  44 N7        30.21R
ISLIP          CLOUDY    62  51  67 SE9       30.21F
NEW YORK CITY  CLOUDY    67  43  41 E6        30.21R
CENTRAL PARK   PTCLDY    67  44  43 VRB5      30.24R
$$

NYZ005>009-017-018-044>046-055-056-240400-
CENTRAL


CITY           SKY/WX    TMP DP  RH WIND       PRES   REMARKS
FULTON         PTCLDY    47  44  90 CALM      30.29S
SYRACUSE       MOCLDY    51  43  74 CALM      30.29S
ROME           CLOUDY    55  44  66 CALM      30.29R
ELMIRA         MOCLDY    53  44  71 NE6       30.27R
BINGHAMTON     MOCLDY    51  43  74 N9        30.27R
MONTICELLO     MOCLDY    56  46  69 N3        30.26R
$$

NYZ026>034-041>043-087-240400-
NORTH


CITY           SKY/WX    TMP DP  RH WIND       PRES   REMARKS
WATERTOWN      PTCLDY    48  44  86 E3        30.30S
FORT DRUM      NOT AVBL
OGDENSBURG     MOCLDY    46  45  93 CALM      30.30R
MASSENA        PTCLDY    47  44  90 CALM      30.33S
SARANAC LAKE   CLOUDY    40  38  93 CALM      30.31R
PLATTSBURGH    CLEAR     47  43  86 CALM      30.32R
$$

NYZ001>004-010>016-019>021-085-240400-
WEST


CITY           SKY/WX    TMP DP  RH WIND       PRES   REMARKS
NIAGARA FALLS  PTCLDY    51  38  60 E5        30.29R
BUFFALO        MOCLDY    52  43  71 NE5       30.29R
DUNKIRK        PTCLDY    48  46  93 CALM      30.30R
JAMESTOWN      MOCLDY    49  38  65 N6        30.29R
WELLSVILLE     MOCLDY    51  40  65 NE6       30.29R
ROCHESTER      PTCLDY    50  43  77 NE5       30.31R
PENN YAN       MOCLDY    50  41  71 CALM      30.30R
$$

             KEY
       WCI = WIND CHILL INDEX
       VSB = VISIBILITY
       HX  = HEAT INDEX
$$



USA.gov is the U.S. government's official web portal to all federal, state and local government web resources and services.